Location: Lawrence
(38.9720°N, 95.2350°W)
Time: 08:35:23
(UTC-05:00)

ISS - Visible Passes

Search period start: 23 June 2018 00:00
Search period end: 03 July 2018 00:00
Orbit: 403 x 408 km, 51.6° (Epoch: 24 June)

Date Brightness Start Highest point End Pass type
(mag) Time Alt. Az. Time Alt. Az. Time Alt. Az.
29 Jun -1.0 05:11:10 10° SE 05:12:01 11° SE 05:12:52 10° ESE visible
01 Jul -2.2 05:01:07 10° SSW 05:03:56 27° SE 05:06:47 10° ENE visible
02 Jul -1.4 04:11:07 13° SSE 04:11:59 14° SE 04:13:46 10° E visible
